Regional Weather Roundup
Issued by NWS Northern Indiana

Home | Current Version | Previous Version | Text Only | Print | Product List | Glossary Off
Versions: 1 2 3 4 5 6 7 8 9 10 11 12 13 14 15 16 17 18 19 20 21 22 23 24 25 26 27 28 29 30 31 32 33 34 35 36 37 38 39 40 41 42 43 44 45 46 47 48 49 50

000
ASUS43 KIWX 281200
RWRIWX

KIWX WEATHER ROUNDUP
NATIONAL WEATHER SERVICE NORTHERN INDIANA
800 AM EDT THU JUL 28 2016

NOTE: "FAIR" INDICATES FEW OR NO CLOUDS BELOW 12,000 FEET WITH NO
SIGNIFICANT WEATHER AND/OR OBSTRUCTIONS TO VISIBILITY.

* THESE STATIONS ARE NOT UNDER NWS QUALITY CONTROL. THEY ALSO MAY NOT
  REPORT WEATHER SUCH AS PRECIPITATION OR FOG.

INZ001>027-281300-
NORTHERN INDIANA

CITY           SKY/WX    TMP DP  RH WIND       PRES   REMARKS
GARY*          PTSUNNY   72  72 100 SE3       29.92R
KNOX*          CLOUDY    64  64 100 CALM      29.92S
SOUTH BEND     MOSUNNY   71  67  87 E3        29.93R
6HR MIN TEMP:  65; 6HR MAX TEMP:  71;

ELKHART*       MOSUNNY   70  68  94 CALM      29.94R
GOSHEN         CLOUDY    68  63  84 NE3       29.94R
6HR MIN TEMP:  65; 6HR MAX TEMP:  70;

MONTICELLO*    PTSUNNY   69  65  88 CALM      29.91S
6HR MIN TEMP:  66; 6HR MAX TEMP:  69;

ANGOLA*          N/A     66  66 100 CALM      29.94R
FORT WAYNE     CLOUDY    70  65  84 N3        29.93R
6HR MIN TEMP:  67; 6HR MAX TEMP:  72;

PERU/GRISSOM   CLOUDY    69  69  99 CALM      29.91R
6HR MIN TEMP:  68; 6HR MAX TEMP:  74;


$$
INZ028>050-281300-
CENTRAL INDIANA

CITY           SKY/WX    TMP DP  RH WIND       PRES   REMARKS
LAFAYETTE      CLOUDY    70  69  97 CALM      29.91S
6HR MIN TEMP:  66; 6HR MAX TEMP:  70;

KOKOMO*        CLOUDY    70  63  78 S3        29.92S
6HR MIN TEMP:  66; 6HR MAX TEMP:  72;

MUNCIE*        CLOUDY    72  68  87 CALM      29.93R
6HR MIN TEMP:  69; 6HR MAX TEMP:  75;

INDIANAPOLIS   CLOUDY    74  69  85 W5        29.92F
6HR MIN TEMP:  73; 6HR MAX TEMP:  79;


$$
MIZ043>046-050>051-056>058-064>065-071>073-077>080-281300-
SOUTHWEST LOWER MICHIGAN

CITY           SKY/WX    TMP DP  RH WIND       PRES   REMARKS
BATTLE CREEK   PTSUNNY   66  65  96 CALM      29.96R
6HR MIN TEMP:  63; 6HR MAX TEMP:  67;

BENTON HARBOR  MOSUNNY   69  65  86 CALM      29.92R
6HR MIN TEMP:  66; 6HR MAX TEMP:  70;

COLDWATER*     PTSUNNY   67  67  99 CALM      29.94S
6HR MIN TEMP:  63; 6HR MAX TEMP:  67;

HILLSDALE*     CLOUDY    66  64  91 CALM      29.95S
6HR MIN TEMP:  59; 6HR MAX TEMP:  87;

HOLLAND        CLOUDY    68  65  90 E3        29.94R
6HR MIN TEMP:  63; 6HR MAX TEMP:  71;

GRAND RAPIDS   PTSUNNY   69  64  84 E3        29.96R
6HR MIN TEMP:  66; 6HR MAX TEMP:  70;

KALAMAZOO      PTSUNNY   70  65  84 CALM      29.95R
6HR MIN TEMP:  66; 6HR MAX TEMP:  70;

STURGIS*       MOSUNNY   67  65  93 CALM      29.94S
6HR MIN TEMP:  64; 6HR MAX TEMP:  68;

THREE RIVERS*  FAIR      69  66  90 CALM      29.94S
6HR MIN TEMP:  65; 6HR MAX TEMP:  69;


$$
OHZ001>008-015>018-024>025-281300-
NORTHWEST OHIO

CITY           SKY/WX    TMP DP  RH WIND       PRES   REMARKS
DEFIANCE       CLOUDY    71  65  81 NE3       29.93R
6HR MIN TEMP:  69; 6HR MAX TEMP:  74;

FINDLAY        MOSUNNY   76  63  64 CALM      29.91S
6HR MIN TEMP:  70; 6HR MAX TEMP:  76;

TOLEDO EXPRESS CLOUDY    70  67  90 CALM      29.93R
6HR MIN TEMP:  65; 6HR MAX TEMP:  70;

TOLEDO METCALF PTSUNNY   73  69  87 CALM      29.93R
6HR MIN TEMP:  68; 6HR MAX TEMP:  74;

LIMA           CLOUDY    71  68  90 CALM      29.93R
6HR MIN TEMP:  67; 6HR MAX TEMP:  72; 6HR PCP: TRACE;


$$
AND FOR LAKE MICHIGAN COASTAL AND OPEN LAKE BUOY OBSERVATIONS

STATION/POSITION TEMP    WIND        PRES    VSBY  WAVE
                 AIR SEA DIR/SP/G                  HT/PER
                 (F)     (DEG/KT/KT) (MB)    (MI)  (FT/S)
CALUMET HARBOR    72     170/  1/  1 1012.1R
MICHIGAN CITY     71     120/  6/  7   N/A
BURNS HARBOR      72     190/  4/  6 1013.2S
SAINT JOSEPH      70     100/  1/  2 1014.2R
SOUTH LAKE BUOY   73 75   30/ 10/ 12 1012.0          0
4 MI NW BRIDGMAN  75 76  210/  2/  4 1012.5R         1
MICHIGAN CITY     74 77  150/  4/  4   N/A           0

$$
&&




USA.gov is the U.S. government's official web portal to all federal, state and local government web resources and services.